Regional Weather Roundup
Issued by NWS Northern Indiana

Home | Current Version | Previous Version | Graphics & Text | Print | Product List | Glossary On
Versions: 1 2 3 4 5 6 7 8 9 10 11 12 13 14 15 16 17 18 19 20 21 22 23 24 25 26 27 28 29 30 31 32 33 34 35 36 37 38 39 40 41 42 43 44 45 46 47 48 49 50
000
ASUS43 KIWX 012200
RWRIWX

KIWX WEATHER ROUNDUP
NATIONAL WEATHER SERVICE NORTHERN INDIANA
600 PM EDT WED OCT 01 2014

NOTE: "FAIR" INDICATES FEW OR NO CLOUDS BELOW 12,000 FEET WITH NO
SIGNIFICANT WEATHER AND/OR OBSTRUCTIONS TO VISIBILITY.

* THESE STATIONS ARE NOT UNDER NWS QUALITY CONTROL. THEY ALSO MAY NOT
  REPORT WEATHER SUCH AS PRECIPITATION OR FOG.

INZ001>027-012300-
NORTHERN INDIANA

CITY           SKY/WX    TMP DP  RH WIND       PRES   REMARKS
GARY*          PTSUNNY   72  52  49 SE12      29.91F
KNOX*          SUNNY     67  49  50 SE7       29.94S
SOUTH BEND     NOT AVBL
ELKHART*       SUNNY     66  48  52 E10       29.97F
WARSAW*        SUNNY     66  50  55 SE5       29.97F
ANGOLA*        SUNNY     66  48  52 SE7       29.99F
FORT WAYNE     MOSUNNY   66  50  56 E7        30.00S
PERU/GRISSOM   SUNNY     70  53  55 E7        29.95F

$$
INZ028>050-012300-
CENTRAL INDIANA

CITY           SKY/WX    TMP DP  RH WIND       PRES   REMARKS
LAFAYETTE      SUNNY     74  58  57 E9        29.91F
KOKOMO*        SUNNY     72  50  46 SE8       29.96F
MUNCIE*        MOSUNNY   71  47  42 SE6       29.98S
INDIANAPOLIS   MOSUNNY   76  57  51 SE7       29.93F

$$
MIZ043>046-050>051-056>058-064>065-071>073-077>080-012300-
SOUTHWEST LOWER MICHIGAN

CITY           SKY/WX    TMP DP  RH WIND       PRES   REMARKS
BATTLE CREEK   SUNNY     66  48  52 SE9       30.00S
BENTON HARBOR  SUNNY     66  51  58 SE9       29.94F
COLDWATER*     SUNNY     67  49  53 SE8       29.99F
HILLSDALE*     SUNNY     65  48  52 SE6       30.01S
HOLLAND        SUNNY     65  52  62 SE13      29.97F
GRAND RAPIDS   MOSUNNY   65  53  65 S9        29.98F
KALAMAZOO      SUNNY     66  49  54 SE8       29.99F
STURGIS*       SUNNY     66  48  52 SE8       29.97F
THREE RIVERS*  FAIR      67  51  56 SE7       29.97F

$$
OHZ001>008-015>018-024>025-012300-
NORTHWEST OHIO

CITY           SKY/WX    TMP DP  RH WIND       PRES   REMARKS
DEFIANCE       SUNNY     67  48  50 S7        30.00S
FINDLAY        SUNNY     69  49  48 E3        29.99F
TOLEDO EXPRESS SUNNY     67  52  58 E5        30.00S
TOLEDO METCALF MOSUNNY   65  54  67 E6        30.02R
LIMA           SUNNY     70  49  47 SE5       29.99F

$$
AND FOR LAKE MICHIGAN COASTAL AND OPEN LAKE BUOY OBSERVATIONS

STATION/POSITION TEMP    WIND        PRES    VSBY  WAVE
                 AIR SEA DIR/SP/G                  HT/PER
                 (F)     (DEG/KT/KT) (MB)    (MI)  (FT/S)
CALUMET HARBOR    70     130/  7/ 10 1011.8S
MICHIGAN CITY     68      90/ 10/ 13   N/A
SAINT JOSEPH      70     160/  1/  8 1014.9R
SOUTH LAKE BUOY   59 61  110/ 14/ 16 1013.9F         2/ 3

$$
&&



USA.gov is the U.S. government's official web portal to all federal, state and local government web resources and services.